星链-1776 (STARLINK-1776 )

导读 | 星芒AI

STARLINK-1776 是 SpaceX Starlink 项目中的一颗低轨通信卫星,属于第二代 Starlink 卫星(Gen2)批次。它于2024年发射,旨在为全球用户提供高速、低延迟的互联网服务。该卫星采用先进推进系统和激光通信技术,提升网络效率与稳定性。作为 Starlink 卫星群的一部分,它支持偏远地区网络覆盖,并增强整体星座的冗余与性能。

基本信息
目录编号:
46682
目录名称:
STARLINK-1776
国际标识:
2020-073N
轨道中心:
EARTH
卫星名称:
星链-1776
卫星全名:
星链-1776 (STARLINK-1776 )
卫星状态:
已陨落 最后检测时间 2025-02-07
发射日期:
2020-10-18 UTC
国别 :
美国 (US)
星等 :
--
轨道信息
数据来源 国际轨道数据
星历时间: 2025-02-07T09:10:29+0800
轨道信息已过期264天
半长轴: 6553.448km
偏心率: 0.0006955
轨道倾角: 53.027°
近地点辐角 276.272°
升交点赤经 199.119°
平近点角 182.893°
近地点: 170.755km
远地点: 179.871km
周期: 87.996分钟
每日圈数: 16.364324
详细信息
固有亮度:
5
最大亮度:
2.5
卫星平台:
Starlink V1.0
覆盖范围:
全球
运营商:
太空探索技术公司
运营商所在国:
美国
制造商(研发单位):
太空探索技术公司
制造商所在国:
美国
使用方式:
暂无
卫星简介
星链(Starlink)计划是由太空探索技术公司(SpaceX)提出的一个巨型低轨卫星互联网星座项目,计划在2019年至2024年间在太空搭建由约1.2万颗卫星组成的“星链”网络,其中1584颗将部署在地球上空550千米处的近地轨道,并从2020年开始工作。该卫星仍在工作。